Regional Weather Roundup
Issued by NWS

Home | Current Version | Previous Version | Graphics & Text | Print | Product List | Glossary On
Versions: 1 2 3 4 5 6 7 8 9 10 11 12 13 14 15 16 17 18 19 20 21 22 23 24 25 26 27 28 29 30 31 32 33 34 35 36 37 38 39 40 41 42 43 44 45 46 47 48 49 50
510
ASUS43 KFSD 211710
RWRSD

WEATHER ROUNDUP FOR SOUTH DAKOTA
NATIONAL WEATHER SERVICE SIOUX FALLS SD
1200 PM CDT THU MAY 21 2015

NOTE: "FAIR" INDICATES FEW OR NO CLOUDS BELOW 12,000 FEET WITH NO
SIGNIFICANT WEATHER AND/OR OBSTRUCTIONS TO VISIBILITY.


SDZ001>005-009-010-012>017-211800-
NORTHWEST AND NORTH CENTRAL SOUTH DAKOTA

CITY           SKY/WX    TMP DP  RH WIND       PRES   REMARKS
BUFFALO          N/A     60  32  34 VRB3      30.17F
FAITH            N/A     61  31  32 SW3       30.23F
MOBRIDGE       SUNNY     70  31  23 NW10      30.18F
$$

SDZ012>016-024>037-041>051-057-063-072>074-211800-
SOUTHWEST AND SOUTH CENTRAL SOUTH DAKOTA

CITY           SKY/WX    TMP DP  RH WIND       PRES   REMARKS
RAPID CTY ARPT SUNNY     57  28  33 S14G20    30.24F
PIERRE         SUNNY     64  36  35 W12       30.23F
CUSTER         MOSUNNY   48  26  42 E8        30.23F
ELLSWORTH AFB  SUNNY     57  31  36 S12       30.23
PHILIP         SUNNY     60  33  36 CALM      30.25F
PINE RIDGE     MOSUNNY   53  34  48 VRB3      30.25F
SPEARFISH      FAIR      55  30  38 E14       30.21F
WINNER         FAIR      63  36  36 NW9       30.26F
$$

SDZ004>011-016>023-039-040-211800-
NORTHEAST SOUTH DAKOTA

CITY           SKY/WX    TMP DP  RH WIND       PRES   REMARKS
ABERDEEN       SUNNY     68  40  35 NW16      30.17S
WATERTOWN      MOSUNNY   64  40  41 W12       30.16S
BROOKINGS      SUNNY     64  37  36 NW18G25   30.16F
SISSETON         N/A     67  34  29 N15G23    30.13F
$$

SDZ017-020-022-023-036>040-048>070-211800-
SOUTHEAST SOUTH DAKOTA

CITY           SKY/WX    TMP DP  RH WIND       PRES   REMARKS
SIOUX FALLS    MOSUNNY   68  39  34 NW18G26   30.17F
HURON          SUNNY     70  35  27 NW16G24   30.18F
CHAMBERLAIN    SUNNY     64  37  36 W12       30.24F
MITCHELL       SUNNY     70  36  28 NW15G24   30.21F
YANKTON        SUNNY     64  39  39 W16       30.21F
$$

ABBREVIATIONS USED IN REMARKS
   TC - TEMPERATURE IN CELSIUS
  WCI - WIND CHILL INDEX
   HX - HEAT INDEX
  VSB - VISIBILITY




USA.gov is the U.S. government's official web portal to all federal, state and local government web resources and services.